UAL6281 KIAH-KMAF

Flight info

Callsign UAL6281
Flight time 1h 2m
Altitude 34000
Route PITZZ5 CRGER JCT SJT MAF
Aircraft B738/M-SDE2E3FGHIRWXY/LB1

Departure

Time 2026-04-25 21:18
Airport George Bush Intercontinental Airport (KIAH)

Arrival

Time 2026-04-25 22:21
Airport Midland International Air and Space Port (KMAF)
Time Latitude Longitude Altitude Speed Heading
2026-04-25 20:47 29.98900 -95.34101 101 ft 0 kts 240°
2026-04-25 21:03 29.98901 -95.34099 101 ft 2 kts 240°
2026-04-25 21:04 29.98907 -95.34080 101 ft 2 kts 271°
2026-04-25 21:04 29.98904 -95.34062 101 ft 2 kts 295°
2026-04-25 21:04 29.98895 -95.34047 101 ft 2 kts 319°
2026-04-25 21:04 29.98882 -95.34038 101 ft 2 kts 344°
2026-04-25 21:05 29.98872 -95.34036 101 ft 1 kts
2026-04-25 21:05 29.98866 -95.34036 101 ft 0 kts
2026-04-25 21:09 29.98874 -95.34036 101 ft 2 kts
2026-04-25 21:09 29.98893 -95.34036 101 ft 3 kts
2026-04-25 21:09 29.98915 -95.34036 101 ft 3 kts
2026-04-25 21:10 29.98921 -95.34036 101 ft 0 kts
2026-04-25 21:11 29.98922 -95.34036 101 ft 1 kts
2026-04-25 21:11 29.98958 -95.34035 101 ft 10 kts
2026-04-25 21:11 29.99050 -95.34036 101 ft 15 kts 346°
2026-04-25 21:12 29.99090 -95.34126 101 ft 14 kts 270°
2026-04-25 21:12 29.99089 -95.34244 101 ft 18 kts 271°
2026-04-25 21:12 29.99089 -95.34405 101 ft 23 kts 269°
2026-04-25 21:12 29.99089 -95.34466 101 ft 22 kts 270°
2026-04-25 21:13 29.99087 -95.34757 101 ft 21 kts 270°
2026-04-25 21:13 29.99087 -95.34927 99 ft 21 kts 270°
2026-04-25 21:13 29.99089 -95.35094 98 ft 21 kts 271°
2026-04-25 21:13 29.99087 -95.35250 100 ft 19 kts 269°
2026-04-25 21:14 29.99085 -95.35405 100 ft 21 kts 269°
2026-04-25 21:14 29.99083 -95.35577 100 ft 23 kts 273°
2026-04-25 21:14 29.99097 -95.35772 100 ft 26 kts 274°
2026-04-25 21:14 29.99081 -95.35947 101 ft 17 kts 248°
2026-04-25 21:15 29.99034 -95.36032 101 ft 10 kts 211°
2026-04-25 21:15 29.98958 -95.36014 100 ft 14 kts 154°
2026-04-25 21:15 29.98879 -95.35974 99 ft 11 kts 174°
2026-04-25 21:15 29.98823 -95.36027 99 ft 0 kts 242°
2026-04-25 21:16 29.98817 -95.36038 99 ft 3 kts 242°
2026-04-25 21:16 29.98804 -95.36067 99 ft 5 kts 242°
2026-04-25 21:16 29.98783 -95.36111 100 ft 5 kts 238°
2026-04-25 21:17 29.98756 -95.36123 100 ft 5 kts 162°
2026-04-25 21:17 29.98714 -95.36098 99 ft 10 kts 152°
2026-04-25 21:17 29.98469 -95.35947 98 ft 83 kts 152°
2026-04-25 21:17 29.97721 -95.35493 99 ft 162 kts 152°
2026-04-25 21:18 29.96631 -95.34841 670 ft 188 kts 153°
2026-04-25 21:18 29.95492 -95.34280 1619 ft 194 kts 168°
2026-04-25 21:18 29.94209 -95.34437 2256 ft 212 kts 204°
2026-04-25 21:18 29.93095 -95.35426 3146 ft 218 kts 229°
2026-04-25 21:19 29.92250 -95.36819 3755 ft 238 kts 236°
2026-04-25 21:19 29.91348 -95.38401 3976 ft 253 kts 234°
2026-04-25 21:19 29.90379 -95.40029 3989 ft 253 kts 234°
2026-04-25 21:19 29.89405 -95.41635 3992 ft 250 kts 234°
2026-04-25 21:20 29.88432 -95.43259 3995 ft 251 kts 236°
2026-04-25 21:20 29.88121 -95.43815 4008 ft 260 kts 237°
2026-04-25 21:20 29.86572 -95.46873 5405 ft 278 kts 239°
2026-04-25 21:20 29.85635 -95.48776 6402 ft 283 kts 240°
2026-04-25 21:21 29.84699 -95.50682 7347 ft 289 kts 241°
2026-04-25 21:21 29.83778 -95.52621 8284 ft 293 kts 245°
2026-04-25 21:21 29.83099 -95.54768 9246 ft 295 kts 261°
2026-04-25 21:21 29.83109 -95.57022 10260 ft 292 kts 284°
2026-04-25 21:22 29.83794 -95.59137 10961 ft 302 kts 298°
2026-04-25 21:22 29.84801 -95.61210 11555 ft 316 kts 301°
2026-04-25 21:22 29.85927 -95.63427 12190 ft 330 kts 301°
2026-04-25 21:22 29.87094 -95.65733 12883 ft 341 kts 300°
2026-04-25 21:23 29.88287 -95.68116 13827 ft 344 kts 300°
2026-04-25 21:23 29.89487 -95.70534 14797 ft 347 kts 299°
2026-04-25 21:23 29.90705 -95.73000 15721 ft 350 kts 299°
2026-04-25 21:23 29.91924 -95.75472 16634 ft 352 kts 298°
2026-04-25 21:24 29.93158 -95.77979 17516 ft 355 kts 298°
2026-04-25 21:24 29.94385 -95.80473 18425 ft 356 kts 298°
2026-04-25 21:24 29.95631 -95.83006 19194 ft 361 kts 298°
2026-04-25 21:24 29.96894 -95.85572 20013 ft 363 kts 298°
2026-04-25 21:25 29.98169 -95.88159 20848 ft 365 kts 298°
2026-04-25 21:25 29.99439 -95.90738 21669 ft 366 kts 298°
2026-04-25 21:25 30.00686 -95.93276 22317 ft 370 kts 298°
2026-04-25 21:25 30.01987 -95.95926 23112 ft 371 kts 298°
2026-04-25 21:26 30.03248 -95.98498 23731 ft 375 kts 298°
2026-04-25 21:26 30.04586 -96.01230 24445 ft 378 kts 298°
2026-04-25 21:26 30.05841 -96.03974 25118 ft 379 kts 294°
2026-04-25 21:26 30.06871 -96.06878 25764 ft 382 kts 288°
2026-04-25 21:27 30.07595 -96.09801 26320 ft 385 kts 284°
2026-04-25 21:27 30.08147 -96.12815 26970 ft 386 kts 282°
2026-04-25 21:27 30.08628 -96.15897 27526 ft 389 kts 281°
2026-04-25 21:27 30.09102 -96.19087 28089 ft 392 kts 281°
2026-04-25 21:28 30.09586 -96.22334 28687 ft 394 kts 281°
2026-04-25 21:28 30.10079 -96.25613 29267 ft 396 kts 281°
2026-04-25 21:28 30.10584 -96.28931 29741 ft 400 kts 281°
2026-04-25 21:28 30.11099 -96.32317 30349 ft 400 kts 281°
2026-04-25 21:29 30.11617 -96.35725 30823 ft 404 kts 281°
2026-04-25 21:29 30.12134 -96.39125 31756 ft 395 kts 281°
2026-04-25 21:29 30.12629 -96.42385 32663 ft 387 kts 282°
2026-04-25 21:29 30.13105 -96.45519 33262 ft 385 kts 281°
2026-04-25 21:30 30.13603 -96.48790 33731 ft 385 kts 281°
2026-04-25 21:30 30.14120 -96.52168 33772 ft 390 kts 281°
2026-04-25 21:30 30.14957 -96.57698 33771 ft 383 kts 282°
2026-04-25 21:31 30.16104 -96.65302 33779 ft 382 kts 281°
2026-04-25 21:31 30.17096 -96.71852 33787 ft 382 kts 281°
2026-04-25 21:32 30.18074 -96.78409 33792 ft 382 kts 281°
2026-04-25 21:32 30.19079 -96.85128 33795 ft 382 kts 281°
2026-04-25 21:33 30.20046 -96.91610 33797 ft 383 kts 281°
2026-04-25 21:33 30.21043 -96.98298 33792 ft 384 kts 281°
2026-04-25 21:34 30.22013 -97.04856 33792 ft 382 kts 281°
2026-04-25 21:34 30.23011 -97.11563 33785 ft 384 kts 281°
2026-04-25 21:35 30.24006 -97.18260 33776 ft 382 kts 281°
2026-04-25 21:35 30.25013 -97.25024 33768 ft 383 kts 281°
2026-04-25 21:36 30.26020 -97.31809 33781 ft 383 kts 281°
2026-04-25 21:36 30.27021 -97.38580 33786 ft 383 kts 281°
2026-04-25 21:37 30.27692 -97.43129 33791 ft 382 kts 281°
2026-04-25 21:37 30.28996 -97.52079 33792 ft 382 kts 281°
2026-04-25 21:38 30.29970 -97.58758 33794 ft 382 kts 281°
2026-04-25 21:38 30.30943 -97.65440 33786 ft 383 kts 281°
2026-04-25 21:39 30.31921 -97.72216 33784 ft 383 kts 281°
2026-04-25 21:39 30.33136 -97.78767 33787 ft 382 kts 284°
2026-04-25 21:40 30.34577 -97.85192 33795 ft 382 kts 285°
2026-04-25 21:40 30.35953 -97.91446 33806 ft 383 kts 284°
2026-04-25 21:41 30.37420 -97.97708 33812 ft 382 kts 290°
2026-04-25 21:41 30.39801 -98.03757 33819 ft 382 kts 295°
2026-04-25 21:42 30.42305 -98.09695 33822 ft 382 kts 294°
2026-04-25 21:42 30.44821 -98.15921 33820 ft 381 kts 294°
2026-04-25 21:43 30.47242 -98.22065 33808 ft 381 kts 293°
2026-04-25 21:43 30.49585 -98.28090 33807 ft 381 kts 293°
2026-04-25 21:44 30.51901 -98.34063 33805 ft 380 kts 293°
2026-04-25 21:45 30.55470 -98.43256 33810 ft 380 kts 293°
2026-04-25 21:45 30.57875 -98.49487 33806 ft 381 kts 293°
2026-04-25 21:46 30.60171 -98.55448 33807 ft 381 kts 293°
2026-04-25 21:46 30.62459 -98.61399 33806 ft 381 kts 292°
2026-04-25 21:47 30.64715 -98.67278 33807 ft 380 kts 292°
2026-04-25 21:47 30.66923 -98.73023 33810 ft 380 kts 293°
2026-04-25 21:48 30.69225 -98.79016 33811 ft 380 kts 292°
2026-04-25 21:48 30.71475 -98.84918 33808 ft 378 kts 292°
2026-04-25 21:49 30.73670 -98.90678 33817 ft 378 kts 293°
2026-04-25 21:49 30.75851 -98.96378 33819 ft 379 kts 293°
2026-04-25 21:50 30.78014 -99.02051 33814 ft 380 kts 292°
2026-04-25 21:50 30.80179 -99.07754 33820 ft 379 kts 292°
2026-04-25 21:51 30.82387 -99.13584 33823 ft 379 kts 292°
2026-04-25 21:51 30.84616 -99.19488 33826 ft 379 kts 292°
2026-04-25 21:52 30.86820 -99.25314 33823 ft 379 kts 292°
2026-04-25 21:52 30.89016 -99.31119 33830 ft 379 kts 292°
2026-04-25 21:53 30.91166 -99.36795 33826 ft 378 kts 292°
2026-04-25 21:53 30.93344 -99.42588 33836 ft 377 kts 292°
2026-04-25 21:53 30.94437 -99.45504 33451 ft 373 kts 292°
2026-04-25 21:54 30.95497 -99.48329 32343 ft 383 kts 292°
2026-04-25 21:54 30.96574 -99.51202 30849 ft 399 kts 292°
2026-04-25 21:54 30.97686 -99.54175 29895 ft 401 kts 292°
2026-04-25 21:54 30.98792 -99.57130 29086 ft 400 kts 292°
2026-04-25 21:55 30.99911 -99.60122 28074 ft 404 kts 292°
2026-04-25 21:55 31.01045 -99.63152 26842 ft 413 kts 292°
2026-04-25 21:55 31.02189 -99.66215 25946 ft 412 kts 292°
2026-04-25 21:55 31.03302 -99.69188 25843 ft 401 kts 291°
2026-04-25 21:56 31.04426 -99.72198 25848 ft 408 kts 291°
2026-04-25 21:56 31.05188 -99.74246 25841 ft 416 kts 292°
2026-04-25 21:56 31.06727 -99.78384 25843 ft 422 kts 291°
2026-04-25 21:56 31.07900 -99.81538 25838 ft 419 kts 291°
2026-04-25 21:57 31.09052 -99.84636 25835 ft 419 kts 292°
2026-04-25 21:57 31.10205 -99.87738 25842 ft 417 kts 292°
2026-04-25 21:57 31.11367 -99.90871 25845 ft 418 kts 291°
2026-04-25 21:57 31.12511 -99.93964 25855 ft 417 kts 292°
2026-04-25 21:58 31.13665 -99.97077 25854 ft 416 kts 291°
2026-04-25 21:58 31.14806 -100.00161 25855 ft 417 kts 291°
2026-04-25 21:58 31.15949 -100.03253 25860 ft 417 kts 291°
2026-04-25 21:58 31.17093 -100.06348 25846 ft 417 kts 291°
2026-04-25 21:59 31.18242 -100.09461 25859 ft 417 kts 291°
2026-04-25 21:59 31.19405 -100.12612 25858 ft 419 kts 291°
2026-04-25 21:59 31.20569 -100.15774 25846 ft 418 kts 291°
2026-04-25 22:00 31.22858 -100.22002 25835 ft 418 kts 291°
2026-04-25 22:00 31.24020 -100.25169 25830 ft 416 kts 292°
2026-04-25 22:00 31.25166 -100.28291 25826 ft 417 kts 291°
2026-04-25 22:00 31.26314 -100.31422 25827 ft 419 kts 291°
2026-04-25 22:01 31.27462 -100.34554 25825 ft 419 kts 291°
2026-04-25 22:01 31.28593 -100.37641 25826 ft 416 kts 291°
2026-04-25 22:01 31.29743 -100.40785 25824 ft 417 kts 291°
2026-04-25 22:01 31.30494 -100.42839 25822 ft 417 kts 291°
2026-04-25 22:02 31.32010 -100.46992 25822 ft 418 kts 291°
2026-04-25 22:02 31.33144 -100.50103 25819 ft 417 kts 291°
2026-04-25 22:02 31.34292 -100.53251 25814 ft 419 kts 292°
2026-04-25 22:02 31.35442 -100.56410 25822 ft 417 kts 291°
2026-04-25 22:03 31.36593 -100.59566 25823 ft 417 kts 291°
2026-04-25 22:03 31.37726 -100.62678 25820 ft 418 kts 291°
2026-04-25 22:03 31.38865 -100.65813 25826 ft 418 kts 291°
2026-04-25 22:03 31.39998 -100.68937 25829 ft 417 kts 291°
2026-04-25 22:04 31.41131 -100.72066 25833 ft 417 kts 291°
2026-04-25 22:04 31.42248 -100.75160 25836 ft 417 kts 291°
2026-04-25 22:04 31.43395 -100.78330 25840 ft 417 kts 291°
2026-04-25 22:04 31.44512 -100.81419 25844 ft 418 kts 291°
2026-04-25 22:05 31.45649 -100.84566 25846 ft 417 kts 291°
2026-04-25 22:05 31.46770 -100.87676 25852 ft 417 kts 291°
2026-04-25 22:05 31.47904 -100.90829 25856 ft 417 kts 291°
2026-04-25 22:05 31.49040 -100.93987 25862 ft 417 kts 291°
2026-04-25 22:06 31.50166 -100.97116 25866 ft 415 kts 291°
2026-04-25 22:06 31.51281 -101.00211 25873 ft 414 kts 291°
2026-04-25 22:06 31.52387 -101.03288 25717 ft 408 kts 291°
2026-04-25 22:06 31.53468 -101.06297 25454 ft 394 kts 291°
2026-04-25 22:07 31.54521 -101.09234 24999 ft 384 kts 290°
2026-04-25 22:07 31.55195 -101.11110 24607 ft 376 kts 291°
2026-04-25 22:07 31.56524 -101.14826 23220 ft 373 kts 291°
2026-04-25 22:07 31.57516 -101.17606 22518 ft 370 kts 290°
2026-04-25 22:08 31.58497 -101.20350 22080 ft 362 kts 290°
2026-04-25 22:08 31.59458 -101.23048 21366 ft 362 kts 290°
2026-04-25 22:08 31.60434 -101.25794 20596 ft 363 kts 290°
2026-04-25 22:08 31.61395 -101.28491 20072 ft 358 kts 290°
2026-04-25 22:09 31.62355 -101.31181 19438 ft 356 kts 290°
2026-04-25 22:09 31.63306 -101.33855 18683 ft 358 kts 290°
2026-04-25 22:09 31.64249 -101.36508 18092 ft 354 kts 290°
2026-04-25 22:09 31.65191 -101.39157 17191 ft 351 kts 291°
2026-04-25 22:10 31.66119 -101.41772 16270 ft 349 kts 290°
2026-04-25 22:10 31.67049 -101.44400 15688 ft 345 kts 290°
2026-04-25 22:10 31.67982 -101.47033 15107 ft 343 kts 291°
2026-04-25 22:10 31.68924 -101.49693 14306 ft 347 kts 290°
2026-04-25 22:11 31.69888 -101.52420 13645 ft 347 kts 291°
2026-04-25 22:11 31.70873 -101.55204 12988 ft 346 kts 291°
2026-04-25 22:11 31.71807 -101.57850 12408 ft 343 kts 291°
2026-04-25 22:11 31.72751 -101.60520 11580 ft 339 kts 291°
2026-04-25 22:12 31.73668 -101.63118 10797 ft 336 kts 291°
2026-04-25 22:12 31.74562 -101.65653 10430 ft 328 kts 290°
2026-04-25 22:12 31.75406 -101.68047 10357 ft 312 kts 290°
2026-04-25 22:12 31.75682 -101.68829 10335 ft 307 kts 290°
2026-04-25 22:13 31.76992 -101.72550 10057 ft 290 kts 290°
2026-04-25 22:13 31.77743 -101.74693 9913 ft 279 kts 290°
2026-04-25 22:13 31.78458 -101.76734 9421 ft 277 kts 290°
2026-04-25 22:13 31.79143 -101.78687 9233 ft 263 kts 290°
2026-04-25 22:14 31.79807 -101.80577 8942 ft 254 kts 290°
2026-04-25 22:14 31.80455 -101.82430 8492 ft 253 kts 289°
2026-04-25 22:14 31.81099 -101.84270 8037 ft 252 kts 290°
2026-04-25 22:14 31.81724 -101.86057 7642 ft 249 kts 289°
2026-04-25 22:15 31.82353 -101.87853 7192 ft 249 kts 290°
2026-04-25 22:15 31.82999 -101.89702 6828 ft 246 kts 290°
2026-04-25 22:15 31.83646 -101.91547 6713 ft 243 kts 290°
2026-04-25 22:16 31.84974 -101.95262 6429 ft 250 kts 291°
2026-04-25 22:16 31.85668 -101.97104 6193 ft 246 kts 291°
2026-04-25 22:16 31.86348 -101.98917 5934 ft 240 kts 291°
2026-04-25 22:16 31.86993 -102.00652 5730 ft 227 kts 291°
2026-04-25 22:17 31.87600 -102.02297 5512 ft 220 kts 291°
2026-04-25 22:17 31.88201 -102.03930 5276 ft 216 kts 290°
2026-04-25 22:17 31.88795 -102.05547 5040 ft 211 kts 290°
2026-04-25 22:17 31.89346 -102.07041 4888 ft 190 kts 290°
2026-04-25 22:18 31.89844 -102.08390 4855 ft 165 kts 289°
2026-04-25 22:18 31.90274 -102.09545 4787 ft 150 kts 289°
2026-04-25 22:18 31.90691 -102.10692 4529 ft 156 kts 289°
2026-04-25 22:18 31.91111 -102.11839 4265 ft 152 kts 288°
2026-04-25 22:19 31.91541 -102.12941 4043 ft 150 kts 290°
2026-04-25 22:19 31.91964 -102.14069 3866 ft 155 kts 288°
2026-04-25 22:19 31.92384 -102.15230 3660 ft 155 kts 285°
2026-04-25 22:19 31.92812 -102.16405 3401 ft 156 kts 288°
2026-04-25 22:20 31.93239 -102.17566 3199 ft 154 kts 287°
2026-04-25 22:20 31.93670 -102.18668 2972 ft 152 kts 287°
2026-04-25 22:20 31.94071 -102.19761 2860 ft 144 kts 289°
2026-04-25 22:20 31.94373 -102.20596 2862 ft 83 kts 295°
2026-04-25 22:21 31.94523 -102.20998 2866 ft 34 kts 293°
2026-04-25 22:21 31.94611 -102.21235 2868 ft 30 kts 293°
2026-04-25 22:21 31.94690 -102.21457 2869 ft 29 kts 292°
2026-04-25 22:21 31.94721 -102.21630 2871 ft 19 kts 252°
2026-04-25 22:22 31.94626 -102.21632 2871 ft 17 kts 115°
2026-04-25 22:22 31.94580 -102.21505 2870 ft 16 kts 114°
2026-04-25 22:22 31.94535 -102.21384 2869 ft 15 kts 113°
2026-04-25 22:22 31.94492 -102.21269 2867 ft 15 kts 113°
2026-04-25 22:23 31.94446 -102.21145 2865 ft 18 kts 114°
2026-04-25 22:23 31.94391 -102.21001 2865 ft 20 kts 113°
2026-04-25 22:23 31.94333 -102.20843 2863 ft 21 kts 114°
2026-04-25 22:23 31.94271 -102.20684 2862 ft 20 kts 115°
2026-04-25 22:24 31.94214 -102.20586 2862 ft 13 kts 156°
2026-04-25 22:24 31.94118 -102.20573 2861 ft 15 kts 176°
2026-04-25 22:24 31.93987 -102.20565 2860 ft 20 kts 179°
2026-04-25 22:24 31.93875 -102.20587 2859 ft 13 kts 200°
2026-04-25 22:25 31.93807 -102.20634 2859 ft 6 kts 219°
2026-04-25 22:25 31.93781 -102.20673 2859 ft 5 kts 249°
2026-04-25 22:25 31.93778 -102.20706 2860 ft 0 kts 267°
2026-04-25 22:25 31.93777 -102.20717 2860 ft 0 kts 267°